Flag for U.S.A. Weather past 2 weeks in Idaho Falls, Idaho, U.S.A.

22 °F

Light snow. Mostly cloudy.

Feels Like: 4 °F
Forecast: 17 / 29 °F
Wind: 28 mph from North

Location: Fanning Field

Current Time: Nov 25, 2015 at 6:23:57 PM

Latest Report: Nov 25, 2015 at 4:53 PM

Visibility: 1 mi

Pressure: 29.86 "Hg (24.88 "Hg at 1429m altitude)

Humidity: 89%

Dew point: 19 °F

Location of Idaho FallsLocation

Historic Weather in Idaho Falls — Graph


Idaho Falls temperature yesterday

Maximum temperature yesterday: 46 °F (at 3:53 PM)
Minimum temperature yesterday: 20 °F (at 3:53 AM)
Average temperature yesterday: 30 °F

Past Weeks' High & Low Weather Summary

High55 °F (Nov 15, 1:53 PM)96% (Nov 11, 4:53 AM)30.68 "Hg (Nov 11, 4:53 AM)
Low8 °F (Nov 21, 1:53 AM)23% (Nov 15, 2:53 PM)29.53 "Hg (Nov 16, 12:53 AM)
Average29 °F71%30.14 "Hg
* Reported Nov 10 4:53 PM — Nov 25 4:53 PM, Idaho Falls, Weather by CustomWeather, © 2015

Note: Actual official high and low records may vary slightly from our data, if they occured in-between our weather recording intervals... More about our weather records


Idaho Falls weather history for previous 24 hours

Time TempWeatherWind HumidityBarometerVisibility
4:53 PM
Wed, Nov 25
22 °FLight snow. Mostly cloudy.28 mph89%29.86 "Hg1 mi
4:04 PM23 °FLight snow. Mostly cloudy.26 mph85%29.76 "Hg1 mi
3:53 PM23 °FSnow. Mostly cloudy.24 mph85%29.85 "Hg1 mi
2:55 PM25 °FLight snow. Mostly cloudy.29 mph75%29.72 "Hg1 mi
1:53 PM27 °FMostly cloudy.21 mph66%29.80 "Hg10 mi
12:53 PM28 °FMostly cloudy.24 mph69%29.78 "Hg10 mi
11:53 AM29 °FMostly cloudy.22 mph75%29.78 "Hg10 mi
10:53 AM33 °FBroken clouds.17 mph61%29.78 "Hg10 mi
9:53 AM30 °FCloudy.17 mph59%29.78 "Hg10 mi
8:53 AM28 °FCloudy.15 mph64%29.78 "Hg10 mi
7:53 AM27 °FOvercast.12 mph66%29.77 "Hg10 mi
6:53 AM26 °FPassing clouds.8 mph77%29.75 "Hg10 mi
5:53 AM28 °FPassing clouds.13 mph72%29.72 "Hg10 mi
4:53 AM30 °FMostly cloudy.16 mph66%29.70 "Hg10 mi
3:53 AM29 °FPartly cloudy.15 mph75%29.65 "Hg10 mi
2:53 AM28 °FOvercast.13 mph75%29.66 "Hg10 mi
1:53 AM27 °FOvercast.8 mph78%29.67 "Hg10 mi
12:53 AM25 °FPassing clouds.7 mph81%29.69 "Hg10 mi
10:53 PM
Tue, Nov 24
27 °FClear.8 mph75%29.72 "Hg10 mi
9:53 PM28 °FClear.5 mph78%29.72 "Hg10 mi
8:53 PM30 °FClear.6 mph75%29.75 "Hg10 mi
7:53 PM31 °FPassing clouds.5 mph79%29.76 "Hg10 mi
6:53 PM35 °FOvercast.No wind64%29.76 "Hg10 mi
Weather by CustomWeather, © 2015

See weather overviewHow to use our weather pages